Radiation Dose at Monitoring Post of Fukushima Daini Nuclear Power Station
Date,Time,MP-1(microSv/h),MP-2(microSv/h),MP-3(microSv/h),MP-4(microSv/h),MP-5(microSv/h),MP-6(microSv/h),MP-7(microSv/h),Wind Direction,Wind Velocity(m/s),Rain
2013/06/30,00:00,0.9,0.6,0.9,0.8,0.8,0.4,0.3,north,2.9,No
2013/06/30,00:10,0.9,0.6,0.9,0.8,0.8,0.4,0.3,north,3.3,No
2013/06/30,00:20,0.9,0.6,0.9,0.8,0.8,0.4,0.3,north,3.7,No
2013/06/30,00:30,0.9,0.6,0.9,0.8,0.8,0.4,0.3,north,4.0,No
2013/06/30,00:40,0.9,0.6,0.9,0.8,0.8,0.4,0.3,north-northwest,3.4,No
2013/06/30,00:50,0.9,0.6,0.9,0.8,0.8,0.4,0.3,north,3.6,No
2013/06/30,01:00,0.9,0.6,0.9,0.8,0.8,0.4,0.3,north,3.7,No
2013/06/30,01:10,0.9,0.6,0.9,0.8,0.8,0.4,0.3,north-northwest,3.7,No
2013/06/30,01:20,0.9,0.6,0.9,0.8,0.8,0.4,0.3,north-northwest,3.1,No
2013/06/30,01:30,0.9,0.6,0.9,0.8,0.8,0.4,0.3,north,3.1,Yes
2013/06/30,01:40,0.9,0.6,0.9,0.8,0.8,0.4,0.3,north,3.3,No
2013/06/30,01:50,0.9,0.6,0.9,0.8,0.8,0.4,0.3,north,4.2,Yes
2013/06/30,02:00,0.9,0.6,0.9,0.8,0.8,0.4,0.3,north,3.8,Yes
2013/06/30,02:10,0.9,0.6,0.9,0.8,0.8,0.4,0.3,north,4.2,Yes
2013/06/30,02:20,0.9,0.6,0.9,0.8,0.8,0.4,0.3,north,3.8,No
2013/06/30,02:30,0.9,0.6,0.9,0.8,0.8,0.4,0.3,north,3.6,No
2013/06/30,02:40,0.9,0.6,0.9,0.8,0.8,0.4,0.3,north,3.9,No
2013/06/30,02:50,0.9,0.6,0.9,0.8,0.8,0.4,0.3,north-northwest,3.6,No
2013/06/30,03:00,0.9,0.6,0.9,0.8,0.8,0.4,0.3,north-northwest,3.9,No
2013/06/30,03:10,0.9,0.6,0.9,0.8,0.8,0.4,0.3,north-northwest,3.7,No
2013/06/30,03:20,0.9,0.6,0.9,0.8,0.8,0.4,0.3,north,2.8,No
2013/06/30,03:30,0.9,0.6,0.9,0.8,0.8,0.4,0.3,north,3.5,No
2013/06/30,03:40,0.9,0.6,0.9,0.8,0.8,0.4,0.3,north,2.9,No
2013/06/30,03:50,0.9,0.6,0.9,0.8,0.8,0.4,0.3,north,3.3,No
2013/06/30,04:00,0.9,0.6,0.9,0.8,0.8,0.4,0.3,north,3.0,No
2013/06/30,04:10,0.9,0.6,0.9,0.8,0.8,0.4,0.3,north,3.1,No
2013/06/30,04:20,0.9,0.6,0.9,0.8,0.8,0.4,0.3,north,3.6,No
2013/06/30,04:30,0.9,0.6,0.9,0.8,0.8,0.4,0.3,north,3.4,No
2013/06/30,04:40,0.9,0.6,0.9,0.8,0.8,0.4,0.3,north,3.3,No
2013/06/30,04:50,0.9,0.6,0.9,0.8,0.8,0.4,0.3,north,3.1,No
2013/06/30,05:00,0.9,0.6,0.9,0.8,0.8,0.4,0.3,north,3.3,No
2013/06/30,05:10,0.9,0.6,0.9,0.8,0.8,0.4,0.3,north,3.3,No
2013/06/30,05:20,0.9,0.6,0.9,0.8,0.8,0.4,0.3,north-northeast,2.8,No
2013/06/30,05:30,0.9,0.6,0.9,0.8,0.8,0.4,0.3,north-northeast,2.1,No
2013/06/30,05:40,0.9,0.6,0.9,0.8,0.8,0.4,0.3,north-northeast,2.3,No
2013/06/30,05:50,0.9,0.6,0.9,0.8,0.8,0.4,0.3,north,1.9,No
2013/06/30,06:00,0.9,0.6,0.9,0.8,0.8,0.4,0.3,north-northwest,1.6,No
2013/06/30,06:10,0.9,0.6,0.9,0.8,0.8,0.4,0.3,north-northwest,1.9,No
2013/06/30,06:20,0.9,0.6,0.9,0.8,0.8,0.4,0.3,north-northwest,2.1,No
2013/06/30,06:30,0.9,0.6,0.9,0.8,0.8,0.4,0.3,north-northwest,1.9,No
2013/06/30,06:40,0.9,0.6,0.9,0.8,0.8,0.4,0.3,north-northwest,1.4,No
2013/06/30,06:50,0.9,0.6,0.9,0.8,0.8,0.4,0.3,north,1.0,No
2013/06/30,07:00,0.9,0.6,0.9,0.8,0.8,0.4,0.3,north-northwest,0.7,No
2013/06/30,07:10,0.9,0.6,0.9,0.8,0.8,0.4,0.3,-,CALM,No
2013/06/30,07:20,0.9,0.6,0.9,0.8,0.8,0.4,0.3,-,CALM,No
2013/06/30,07:30,0.9,0.6,0.9,0.8,0.8,0.4,0.3,north,0.8,No
2013/06/30,07:40,0.9,0.6,0.9,0.8,0.8,0.4,0.3,east-northeast,0.9,No
2013/06/30,07:50,0.9,0.6,0.9,0.8,0.8,0.4,0.3,east-northeast,0.7,No
2013/06/30,08:00,0.9,0.6,0.9,0.9,0.8,0.4,0.3,-,CALM,No
2013/06/30,08:10,0.9,0.6,0.9,0.8,0.8,0.4,0.3,east-northeast,0.7,No
2013/06/30,08:20,0.9,0.6,0.9,0.9,0.8,0.4,0.3,-,CALM,No
2013/06/30,08:30,0.9,0.6,0.9,0.8,0.8,0.4,0.3,east,0.8,No
2013/06/30,08:40,0.9,0.6,0.9,0.9,0.8,0.4,0.3,southeast,0.7,No
2013/06/30,08:50,0.9,0.6,0.9,0.9,0.8,0.4,0.3,east,1.1,No
2013/06/30,09:00,0.9,0.6,0.9,0.9,0.8,0.4,0.3,east-southeast,0.9,No
2013/06/30,09:10,0.9,0.6,0.9,0.9,0.8,0.4,0.3,southeast,1.1,No
2013/06/30,09:20,0.9,0.6,0.9,0.9,0.8,0.4,0.3,east-southeast,0.7,No
2013/06/30,09:30,0.9,0.6,0.9,0.9,0.8,0.4,0.3,east-southeast,1.6,No
2013/06/30,09:40,0.9,0.6,0.9,0.9,0.8,0.4,0.3,east-southeast,1.9,No
2013/06/30,09:50,0.9,0.6,0.9,0.9,0.8,0.4,0.3,east-southeast,1.9,No
2013/06/30,10:00,0.9,0.6,0.9,0.9,0.8,0.4,0.3,east-southeast,2.9,No
2013/06/30,10:10,0.9,0.6,0.9,0.9,0.8,0.4,0.3,east-southeast,3.0,No
2013/06/30,10:20,0.9,0.6,0.9,0.9,0.8,0.4,0.3,south-southeast,3.2,No
2013/06/30,10:30,0.9,0.6,0.9,0.9,0.8,0.4,0.3,south-southeast,3.1,No
2013/06/30,10:40,0.9,0.6,0.9,0.9,0.8,0.4,0.3,south-southeast,1.9,No
2013/06/30,10:50,0.9,0.6,0.9,0.9,0.8,0.4,0.3,south-southeast,1.9,No
2013/06/30,11:00,0.9,0.6,0.9,0.9,0.8,0.4,0.3,south-southeast,2.5,No
2013/06/30,11:10,0.9,0.6,0.9,0.9,0.8,0.4,0.3,south-southeast,2.8,No
2013/06/30,11:20,0.9,0.6,0.9,0.9,0.8,0.4,0.3,southeast,3.1,No
2013/06/30,11:30,0.9,0.6,0.9,0.9,0.8,0.4,0.3,south-southeast,4.0,No
2013/06/30,11:40,0.9,0.6,0.9,0.9,0.8,0.4,0.3,south-southeast,4.3,No
2013/06/30,11:50,0.9,0.6,0.9,0.9,0.8,0.4,0.3,south,5.0,No
2013/06/30,12:00,0.9,0.6,0.9,0.9,0.8,0.4,0.3,south-southeast,4.8,No
2013/06/30,12:10,0.9,0.6,0.9,0.9,0.8,0.4,0.3,south-southeast,4.5,No
2013/06/30,12:20,0.9,0.6,0.9,0.9,0.8,0.4,0.3,south,6.1,No
2013/06/30,12:30,0.9,0.6,0.9,0.9,0.8,0.4,0.3,south-southeast,6.9,No
2013/06/30,12:40,0.9,0.6,0.9,0.9,0.8,0.4,0.3,south,7.3,No
2013/06/30,12:50,0.9,0.6,0.9,0.9,0.8,0.4,0.3,south,7.8,No
2013/06/30,13:00,0.9,0.6,0.9,0.9,0.8,0.4,0.3,south,7.3,No
2013/06/30,13:10,0.9,0.6,0.9,0.9,0.8,0.4,0.3,south,8.2,No
2013/06/30,13:20,0.9,0.6,0.9,0.9,0.8,0.4,0.3,south,8.2,No
2013/06/30,13:30,0.9,0.6,0.9,0.9,0.8,0.4,0.3,south,8.1,No
2013/06/30,13:40,0.9,0.6,0.9,0.9,0.8,0.4,0.3,south,8.1,No
2013/06/30,13:50,0.9,0.6,0.9,0.9,0.8,0.4,0.3,south-southeast,9.2,No
2013/06/30,14:00,0.9,0.6,0.9,0.9,0.8,0.4,0.3,south,10.1,No
2013/06/30,14:10,0.9,0.6,0.9,0.9,0.8,0.4,0.3,south,9.8,No
2013/06/30,14:20,0.9,0.6,0.9,0.9,0.8,0.4,0.3,south,9.8,No
2013/06/30,14:30,0.9,0.6,0.9,0.9,0.8,0.4,0.3,south,9.9,No
2013/06/30,14:40,0.9,0.6,0.9,0.9,0.8,0.4,0.3,south,10.9,No
2013/06/30,14:50,0.9,0.6,0.9,0.9,0.8,0.4,0.3,south-southeast,10.4,No
2013/06/30,15:00,0.9,0.6,0.9,0.9,0.8,0.4,0.3,south,10.1,No
2013/06/30,15:10,0.9,0.6,0.9,0.9,0.8,0.4,0.3,south,11.0,No
2013/06/30,15:20,0.9,0.6,0.9,0.9,0.8,0.4,0.3,south,10.0,No
2013/06/30,15:30,0.9,0.6,0.9,0.9,0.8,0.4,0.3,south,8.7,No
2013/06/30,15:40,0.9,0.6,0.9,0.9,0.8,0.4,0.3,south,8.9,No
2013/06/30,15:50,0.9,0.6,0.9,0.9,0.8,0.4,0.3,south,9.9,No
2013/06/30,16:00,0.9,0.6,0.9,0.9,0.8,0.4,0.3,south,10.7,No
2013/06/30,16:10,0.9,0.6,0.9,0.9,0.8,0.4,0.3,south,10.0,No
2013/06/30,16:20,0.9,0.6,0.9,0.9,0.8,0.4,0.3,south,10.7,No
2013/06/30,16:30,0.9,0.6,0.9,0.9,0.8,0.4,0.3,south,10.0,No
2013/06/30,16:40,0.9,0.6,0.9,0.9,0.8,0.4,0.3,south,10.0,No
2013/06/30,16:50,0.9,0.6,0.9,0.9,0.8,0.4,0.3,south,9.7,No
2013/06/30,17:00,0.9,0.6,0.9,0.9,0.8,0.4,0.3,south,9.5,No
2013/06/30,17:10,0.9,0.6,0.9,0.9,0.8,0.4,0.3,south,8.9,No
2013/06/30,17:20,0.9,0.6,0.9,0.9,0.8,0.4,0.3,south-southwest,9.5,No
2013/06/30,17:30,0.9,0.6,0.9,0.9,0.8,0.4,0.3,south-southwest,8.6,No
2013/06/30,17:40,0.9,0.6,0.9,0.9,0.8,0.4,0.3,south-southwest,7.9,No
2013/06/30,17:50,0.9,0.6,0.9,0.9,0.8,0.4,0.3,south-southwest,8.5,No
2013/06/30,18:00,0.9,0.6,0.9,0.9,0.8,0.4,0.3,south,7.1,No
2013/06/30,18:10,0.9,0.6,0.9,0.9,0.8,0.4,0.3,south,7.6,No
2013/06/30,18:20,0.9,0.6,0.9,0.9,0.8,0.4,0.3,south,8.5,No
2013/06/30,18:30,0.9,0.6,0.9,0.9,0.8,0.4,0.3,south-southwest,8.4,No
2013/06/30,18:40,0.9,0.6,0.9,0.9,0.8,0.4,0.3,south-southwest,6.9,No
2013/06/30,18:50,0.9,0.6,0.9,0.9,0.8,0.4,0.3,south,7.0,No
2013/06/30,19:00,0.9,0.6,0.9,0.9,0.8,0.4,0.3,south,7.2,No
2013/06/30,19:10,0.9,0.6,0.9,0.9,0.8,0.4,0.3,south-southwest,7.0,No
2013/06/30,19:20,0.9,0.6,0.9,0.9,0.8,0.4,0.3,south,6.5,No
2013/06/30,19:30,0.9,0.6,0.9,0.9,0.8,0.4,0.3,south,7.0,No
2013/06/30,19:40,0.9,0.6,0.9,0.9,0.8,0.4,0.3,south,8.5,No
2013/06/30,19:50,0.9,0.6,0.9,0.9,0.8,0.4,0.3,south,8.6,No
2013/06/30,20:00,0.9,0.6,0.9,0.9,0.8,0.4,0.3,south,8.5,No
2013/06/30,20:10,0.9,0.6,0.9,0.9,0.8,0.4,0.3,south,8.4,No
2013/06/30,20:20,0.9,0.6,0.9,0.9,0.8,0.4,0.3,south-southwest,7.5,No
2013/06/30,20:30,0.9,0.6,0.9,0.9,0.8,0.4,0.3,south-southwest,7.0,No
2013/06/30,20:40,0.9,0.6,0.9,0.9,0.8,0.4,0.3,south-southwest,7.3,No
2013/06/30,20:50,0.9,0.6,0.9,0.9,0.8,0.4,0.3,south-southwest,6.9,No
2013/06/30,21:00,0.9,0.6,0.9,0.9,0.8,0.4,0.3,south-southwest,7.0,No
2013/06/30,21:10,0.9,0.6,0.9,0.9,0.8,0.4,0.3,south-southwest,7.0,No
2013/06/30,21:20,0.9,0.6,0.9,0.9,0.8,0.4,0.3,south-southwest,6.9,No
2013/06/30,21:30,0.9,0.6,0.9,0.9,0.8,0.4,0.3,south-southwest,7.0,No
2013/06/30,21:40,0.9,0.6,0.9,0.9,0.8,0.4,0.3,south-southwest,6.9,No
2013/06/30,21:50,0.9,0.6,0.9,0.9,0.8,0.4,0.3,south,5.9,No
2013/06/30,22:00,0.9,0.6,0.9,0.9,0.8,0.4,0.3,south-southwest,6.8,No
2013/06/30,22:10,0.9,0.6,0.9,0.9,0.8,0.4,0.3,south-southwest,7.0,No
2013/06/30,22:20,0.9,0.6,0.9,0.9,0.8,0.4,0.3,south-southwest,7.9,No
2013/06/30,22:30,0.9,0.6,0.9,0.9,0.8,0.4,0.3,south-southwest,7.4,No
2013/06/30,22:40,0.9,0.6,0.9,0.9,0.8,0.4,0.3,south,8.2,No
2013/06/30,22:50,0.9,0.6,0.9,0.9,0.8,0.4,0.3,south-southwest,8.1,No
2013/06/30,23:00,0.9,0.6,0.9,0.9,0.8,0.4,0.3,south-southwest,7.7,No
2013/06/30,23:10,0.9,0.6,0.9,0.9,0.8,0.4,0.3,south-southwest,7.7,No
2013/06/30,23:20,0.9,0.6,0.9,0.9,0.8,0.4,0.3,south-southwest,7.1,No
2013/06/30,23:30,0.9,0.6,0.9,0.9,0.8,0.4,0.3,south-southwest,8.0,No
2013/06/30,23:40,0.9,0.6,0.9,0.9,0.8,0.4,0.3,south-southwest,8.4,No
2013/06/30,23:50,0.9,0.6,0.9,0.9,0.8,0.4,0.3,south-southwest,7.5,No
